Home > Weather > Narowal > Past weeks

Flag for Pakistan Weather for the Past 2 Weeks in Narowal, Pakistan

Now
90 °F

Passing clouds.


Feels Like: 88 °F
Forecast: 77 / 103 °F
Wind: No wind

Location: Amritsar Airport

Current Time: May 6, 2016 at 8:18:54 PM

Latest Report: May 6, 2016 at 7:30 PM


Visibility: 2 mi

Pressure: 29.71 "Hg

Humidity: 31%

Dew Point: 55 °F

Location of NarowalLocation

Historic Weather in Narowal — Graph

°F

Narowal Temperature Yesterday

Maximum temperature yesterday: 97 °F (at 1:00 PM)
Minimum temperature yesterday: 70 °F (at 1:00 AM)
Average temperature yesterday: 84 °F

High & Low Weather Summary for the Past Weeks

 TemperatureHumidityPressure
High109 °F (May 2, 1:30 PM)78% (Apr 21, 10:00 PM)29.83 "Hg (Apr 21, 10:00 PM)
Low61 °F (Apr 23, 5:00 AM)5% (May 2, 1:30 PM)29.56 "Hg (May 1, 4:00 PM)
Average85 °F30%29.70 "Hg
* Reported Apr 21 7:00 PM — May 6 7:00 PM, Narowal, Weather by CustomWeather, © 2016

Note: Actual official high and low records may vary slightly from our data, if they occured in-between our weather recording intervals... More about our weather records

Advertising

Narowal Weather History for the Previous 24 Hours

Scroll right to see more
 ConditionsComfort  
Time TempWeatherWind HumidityBarometerVisibility
7:00 PM
Fri, May 6
90 °FScattered clouds.2 mph31%29.71 "Hg2 mi
6:30 PM91 °FScattered clouds.5 mph30%29.71 "Hg2 mi
6:00 PM93 °FScattered clouds.3 mph28%29.71 "Hg2 mi
5:30 PM95 °FScattered clouds.5 mph26%29.71 "Hg2 mi
5:00 PM95 °FScattered clouds.2 mph26%29.71 "Hg2 mi
4:30 PM95 °FScattered clouds.1 mph25%29.71 "Hg2 mi
3:30 PM95 °FScattered clouds.1 mph25%29.71 "Hg2 mi
3:00 PM95 °FScattered clouds.3 mph25%29.74 "Hg2 mi
2:30 PM95 °FScattered clouds.2 mph26%29.74 "Hg2 mi
2:00 PM95 °FScattered clouds.5 mph26%29.74 "Hg2 mi
1:30 PM95 °FHaze.6 mph28%29.77 "Hg3 mi
1:00 PM93 °FHaze.3 mph30%29.77 "Hg3 mi
12:30 PM93 °FHaze.6 mph32%29.80 "Hg3 mi
12:00 PM93 °FHaze.No wind32%29.80 "Hg3 mi
11:30 AM90 °FHaze.3 mph27%29.80 "Hg3 mi
11:00 AM90 °FHaze.2 mph36%29.80 "Hg3 mi
10:30 AM86 °FHaze.No wind40%29.83 "Hg3 mi
10:00 AM84 °FHaze.2 mph43%29.83 "Hg3 mi
9:30 AM84 °FHaze.3 mph43%29.80 "Hg3 mi
9:00 AM84 °FHaze.1 mph43%29.80 "Hg3 mi
8:30 AM81 °FHaze.6 mph48%29.80 "Hg3 mi
8:00 AM79 °FHaze.5 mph54%29.80 "Hg2 mi
7:30 AM75 °FHaze.7 mph61%29.80 "Hg2 mi
7:00 AM73 °FHaze.6 mph65%29.80 "Hg2 mi
6:30 AM72 °FHaze.2 mph69%29.77 "Hg2 mi
6:00 AM70 °FScattered clouds.2 mph69%29.77 "Hg2 mi
5:30 AM70 °FPassing clouds.2 mph69%29.77 "Hg2 mi
5:00 AM68 °FPassing clouds.2 mph73%29.74 "Hg2 mi
3:30 AM72 °FPassing clouds.3 mph61%29.74 "Hg2 mi
2:30 AM75 °FPassing clouds.2 mph50%29.74 "Hg2 mi
2:00 AM75 °FPassing clouds.2 mph50%29.77 "Hg2 mi
1:30 AM77 °FPassing clouds.2 mph47%29.77 "Hg2 mi
1:00 AM77 °FPassing clouds.7 mph47%29.77 "Hg2 mi
12:30 AM75 °FPassing clouds.6 mph54%29.77 "Hg2 mi
12:00 AM77 °FPartly cloudy.10 mph51%29.80 "Hg2 mi
11:30 PM
Thu, May 5
75 °FThundershowers. Partly cloudy.14 mph54%29.80 "Hg2 mi
11:00 PM77 °FPartly cloudy.14 mph54%29.80 "Hg1 mi
10:30 PM81 °FPartly cloudy.18 mph45%29.83 "Hg1 mi
10:00 PM81 °FPassing clouds.2 mph48%29.80 "Hg2 mi
9:30 PM84 °FPassing clouds.3 mph40%29.77 "Hg2 mi
9:00 PM86 °FPassing clouds.2 mph38%29.77 "Hg2 mi
8:30 PM86 °FPassing clouds.2 mph38%29.77 "Hg2 mi
8:00 PM86 °FPassing clouds.2 mph38%29.77 "Hg2 mi
Weather by CustomWeather, © 2016

See weather overviewHow to use our weather pages